Zurück zum Katalog

AURORA 1

AktivKommunikationPO
NORAD 2876·PAYLOAD·🇺🇸 United States

Gestartet Jun 29, 1967 von Vandenberg Space Force Base

Loading…

Nächste Überflüge (nächste 24 Stunden)

TLE

AktuellSource: Space-Track

Epoche: Sep 14, 2026, 14:11 UTC

1 02876U 67065B   26257.59130620  .00000012  00000-0  64271-2 0  9990
2 02876  89.9742 313.2070 0070194  21.4198 338.9554  8.36560232397085

Verfolge AURORA 1 in Echtzeit mit AllMySat

Download on the App Store